DELTA 1 DEB

Satellite information

Favourite Embed

Satellite Type and Status

DEBRISIN ORBIT

Key statistics

Satellite DELTA 1 DEB at a glance.

Uptime

17685

Days in orbit

Revolutions

≈ 13.7

Per day

Orbit

LEO

Low Earth Orbit

Inclination

29.1

Latest

Satellite identification and parameters

Extended collection of information and parameters for DELTA 1 DEB.

Object identification

Identified? True

Debris? True

Object name: DELTA 1 DEB

International designator: 1977-065DC

Object number (NORAD): 10306

Object ID (CCSDS): 10306

Country: UNITED STATES OF AMERICA (US)

Current information (Y/N): Y

RCS size: SMALL

Orbital parameters

Period: 105.318 minutes

Inclination: 29.1062 deg

SMA: 7387.471 km

Apoapsis: 1494.089 km

Periapsis: 524.583 km

RAAN: 2.7203 deg

Eccentricy: 0.06561827

Argument of periapsis: 36.7564 deg

Mean anomaly: 327.6223 deg

Mean motion: 13.67285171 rev/day

Mean motion (dot): 0.00003379 rev/day2

B* drag term: 0.00082359997 1/REarth

Two-line elements (TLE)

Creation date: Dec. 14, 2025, 3:07 a.m.

Reference frame: TEME

Reference center: EARTH

Epoch: Dec. 13, 2025, 8:57 a.m. UTC

TLE line 0: 0 DELTA 1 DEB

TLE line 1: 1 10306U 77065DC 25347.37301300 .00003379 00000-0 82360-3 0 9997

TLE line 2: 2 10306 29.1062 2.7203 0656183 36.7564 327.6223 13.67285171365589

Live tracking on map

Real-time ground track for satellite DELTA 1 DEB.

In-orbit conjunctions

A list of the most updated potential collisions computed for object DELTA 1 DEB.

Target Orbit TCA Probability of collision Miss distance Type
ORBCOMM FM 1 LEO 2025-02-16 01:05:39 0.0001013267 34.0 (m) PAYLOAD

Associated space launch

Japanese meteorological satellite built by Hughes Space and Communications Company

DELTA 1 DEB was lifted into orbit during the mission ‘Delta 2914 | Himawari’, on board a Delta 2914 space rocket.

The launch took place on July 14, 1977, 10:39 a.m. from Space Launch Complex 17B.

For more information about the launch, click the button.

Launch to space Delta 2914 | Himawari
Delta 2914 | Himawari

Agency: N/A

Status: Launch Successful

Launch date: July 14, 1977, 10:39 a.m. UTC

Rocket: Delta 2914

Launch pad: Space Launch Complex 17B

Location: Cape Canaveral SFS, FL, USA

...

Latest news about this satellite

There are no fresh news available about this satellite. Check back as we update our databases every day.


Newsletter sign-up

Weekly statistics, charts and insights to help you stay on top of the space industry.